Location: Unspecified
(46.0725°N, 13.7344°E)
Time: 19:26:33
(UTC+01:00)

Cosmos 2058 - Pass Details

Date: 26 October 2019
Orbit: 562 x 584 km, 82.5° (Epoch: 19 November)

Event Time Altitude Azimuth Distance (km) Brightness Sun altitude
Rises 19:43:14 0° 347° (NNW) 2,817 6.6 -18.3°
Reaches altitude 10° 19:45:28 10° 343° (NNW) 1,910 5.8 -18.7°
Maximum altitude 19:49:35 56° 266° (W) 692 3.6 -19.4°
Drops below altitude 10° 19:53:40 10° 187° (S) 1,885 5.6 -20.2°
Sets 19:55:52 0° 183° (S) 2,775 6.4 -20.5°
